Location: Eldred Sherwood Park Lake Dam
(42.9416°N, 93.5655°W)
Time: 06:20:56
(UTC+00:00)

BlueWalker 3 - Pass Details

Date: 12 October 2024
Orbit: 470 x 482 km, 53.2° (Epoch: 04 November)

Event Time Altitude Azimuth Distance (km) Brightness Sun altitude
Exits shadow 09:42:07 15° 34° (NNE) 1,365 4.7 -30.2°
Drops below altitude 10° 09:42:54 10° 40° (NE) 1,635 5.2 -30.1°
Sets 09:45:13 0° 51° (NE) 2,514 6.5 -29.7°
